[[{"header":{"parameterUnit":"m.s-1","parameterCategory":1,"la1":30.2991,"la2":30.254,"lo1":-89.0895,"lo2":-89.0444,"dy":0.0017,"dx":0.0017,"nx":28,"ny":28,"refTime":"2025-12-05T09:00:00:Z","depth":0,"parameterNumber":2,"parameterNumberName":"U-component_of_WINDS"},"data":[0,0,0,0,0,0,0,0,0,0,0,0,0,0,0,0,0,0,0,0,0,0,0,0,0,0,0,0,0,0,0,0,0,0,0,0,0,0,0,0,0,0,0,0,0,0,0,0,0,0,0,0,0,0,0,0,0,0,-3.6032,-3.6033,0,-3.6088,-3.6089,-3.6089,-3.6005,-3.6002,-3.5999,-3.5996,-3.6055,-3.6059,-3.6064,0,0,0,0,0,0,0,0,0,0,0,0,0,-3.5852,-3.5856,-3.6032,-3.6033,-3.6033,-3.6088,-3.6089,-3.609,-3.6006,-3.6002,-3.5998,-3.5995,-3.6054,-3.6059,-3.6064,0,0,0,0,0,0,0,0,0,0,0,0,0,-3.5921,-3.5857,-3.6032,-3.5998,-3.5995,-3.6088,-3.6089,-3.609,-3.6006,-3.6002,-3.5997,-3.5993,-3.6052,-3.6058,-3.6065,-3.6193,0,0,-3.6085,-3.6087,0,0,0,0,0,0,0,0,-3.5918,-3.5928,-3.6002,-3.6,-3.5998,-3.6035,-3.6047,-3.6125,-3.6007,-3.6002,-3.5996,-3.5991,-3.6052,-3.6058,-3.6079,-3.6196,-3.6199,-3.6085,-3.6089,-3.6092,-3.6094,0,0,0,0,0,0,0,-3.5913,-3.5925,-3.6054,-3.6003,-3.6001,-3.598,-3.5985,-3.6061,-3.6051,-3.6002,-3.5996,-3.6004,-3.605,-3.6073,-3.6079,-3.62,-3.6085,-3.6091,-3.6095,-3.6097,-3.6424,-3.6429,0,0,0,0,0,0,-3.5912,-3.5922,-3.6052,-3.6056,-3.5946,-3.5987,-3.5992,-3.6028,-3.605,-3.6049,-3.6008,-3.6,-3.6064,-3.6072,-3.6081,-3.6232,-3.6092,-3.6098,-3.6102,-3.642,-3.6425,-3.6431,0,0,0,0,0,0,-3.5909,-3.5924,-3.605,-3.5987,-3.6002,-3.5995,-3.6035,-3.6031,-3.6053,-3.6054,-3.6052,-3.6033,-3.6061,-3.6072,-3.6166,-3.6233,-3.6101,-3.6107,-3.6414,-3.6421,-3.6428,-3.6537,0,0,0,0,0,0,-3.5904,-3.5924,-3.5973,-3.5989,-3.6005,-3.6134,-3.6039,-3.6035,-3.6065,-3.6055,-3.6077,-3.6077,-3.6058,-3.6157,-3.6172,-3.624,-3.6112,-3.6408,-3.6417,-3.6426,-3.6527,-3.6547,-3.6564,0,0,0,0,0,-3.5898,-3.6001,-3.5975,-3.5992,-3.6066,-3.6138,-3.6147,-3.6124,-3.6071,-3.6119,-3.612,-3.6076,-3.6224,-3.6167,-3.6184,-3.6254,-3.6404,-3.6415,-3.6425,-3.6519,-3.6543,-3.6563,0,0,0,0,0,0,-3.5994,-3.6003,-3.5974,-3.6087,-3.6112,-3.6124,-3.6185,-3.615,-3.6191,-3.6181,-3.615,-3.6155,-3.6256,-3.6264,-3.6201,-3.638,-3.6305,-3.6319,-3.637,-3.6393,-3.6411,-3.6407,-3.6117,0,0,0,0,0,-3.6028,-3.6086,-3.609,-3.6189,-3.6203,-3.6192,-3.6223,-3.6202,-3.6227,-3.6238,-3.6245,-3.6272,-3.6324,-3.6359,-3.6407,-3.6528,-3.6531,-3.6585,-3.6603,-3.6618,-3.6631,-3.6695,-3.6719,-3.6466,-3.6466,-3.6466,0,0,-3.61,-3.6112,-3.615,-3.6209,-3.6226,-3.6286,-3.6202,-3.6269,-3.6314,-3.6248,-3.6337,-3.6343,-3.6371,-3.6479,-3.6526,-3.6489,-3.6702,-3.6632,-3.6644,-3.6649,-3.6709,-3.6732,-3.6754,-3.6474,-3.6472,-3.6471,0,0,-3.626,-3.6275,-3.6359,-3.6378,-3.6405,-3.6396,-3.6417,-3.6433,-3.6435,-3.6523,-3.6475,-3.6528,-3.6618,-3.664,-3.6663,-3.6831,-3.6792,-3.6847,-3.6943,-3.7005,-3.7025,-3.7043,-3.7102,-3.7124,-3.686,-3.6861,-3.6861,0,-3.6346,-3.6434,-3.6406,-3.6477,-3.6504,-3.6447,-3.653,-3.655,-3.6592,-3.6612,-3.657,-3.6682,-3.6696,-3.6808,-3.6849,-3.6869,-3.6891,-3.6844,-3.7025,-3.7042,-3.7058,-3.7114,-3.7136,-3.6867,-3.6866,-3.6866,-3.6865,0,-3.6537,-3.6599,-3.6663,-3.6704,-3.6739,-3.6816,-3.6799,-3.6838,-3.6814,-3.681,-3.6901,-3.6916,-3.6966,-3.6991,-3.6969,-3.71,-3.7075,-3.7029,-3.6953,-3.7089,-3.7141,-3.7162,-3.6877,-3.6874,-3.6872,-3.6871,0,0,-3.6761,-3.6784,-3.6808,-3.6826,-3.6851,-3.6899,-3.6973,-3.7021,-3.7054,-3.7085,-3.7146,-3.7224,-3.7181,-3.7207,-3.7187,-3.7242,-3.7373,-3.7189,-3.7189,-3.7222,-3.7518,-3.7552,-3.7577,-3.7348,-3.7352,-3.7355,-3.7515,0,-3.692,-3.7048,-3.7024,-3.7149,-3.7205,-3.7152,-3.7216,-3.7239,-3.7237,-3.7285,-3.7284,-3.7339,-3.7279,-3.7294,-3.7346,-3.7347,-3.7432,-3.7335,-3.7404,-3.7407,-3.7398,-3.7604,-3.7641,-3.7791,-3.7535,-3.7539,-3.7541,0,-3.7123,-3.7161,-3.7291,-3.7306,-3.7329,-3.7387,-3.7429,-3.7476,-3.75,-3.7495,-3.7524,-3.7493,-3.7567,-3.749,-3.7591,-3.7526,-3.7553,-3.7557,-3.7563,-3.7568,-3.7482,-3.7615,-3.7838,-3.7861,-3.7573,-3.7571,-3.7568,0,-3.7272,-3.7355,-3.7443,-3.746,-3.748,-3.7523,-3.7533,-3.7553,-3.7583,-3.762,-3.7639,-3.7685,-3.771,-3.7745,-3.7728,-3.7673,-3.7832,-3.7754,-3.783,-3.783,-3.7865,-3.7863,-3.8096,-3.7884,-3.7884,-3.7883,-3.7883,0,-3.7452,-3.7534,-3.751,-3.7564,-3.7654,-3.7626,-3.7715,-3.772,-3.7738,-3.7792,-3.7749,-3.78,-3.7774,-3.7824,-3.7811,-3.7896,-3.7908,-3.7906,-3.7901,-3.7909,-3.791,-3.7926,-3.7915,-3.7889,-3.7888,-3.7887,-3.7886,0,-3.7633,-3.7621,-3.7713,-3.7725,-3.773,-3.7795,-3.7805,-3.7856,-3.785,-3.7919,-3.7934,-3.7926,-3.7983,-3.7969,-3.803,-3.8021,-3.8129,-3.8111,-3.8121,-3.8116,-3.8192,-3.8185,-3.8444,-3.8476,-3.8244,-3.8246,-3.8248,0,-3.7749,-3.781,-3.7828,-3.7861,-3.7874,-3.7928,-3.7958,-3.7933,-3.7967,-3.7999,-3.8046,-3.8098,-3.8139,-3.8231,-3.8231,-3.8278,-3.8261,-3.8349,-3.8268,-3.8274,-3.8262,-3.8258,-3.8264,-3.8365,-3.8367,-3.8369,-3.8371,0,-3.7955,-3.7946,-3.7991,-3.8034,-3.8071,-3.8104,-3.8133,-3.8162,-3.814,-3.8179,-3.8236,-3.8267,-3.833,-3.8382,-3.8425,-3.8436,-3.8401,-3.8397,-3.8416,-3.8425,-3.8428,-3.8427,-3.8164,-3.8391,-3.8389,-3.8387,-3.8386,-3.8385,-3.8107,-3.8158,-3.8178,-3.823,-3.8249,-3.8277,-3.8324,-3.8325,-3.8372,-3.842,-3.8403,-3.8468,-3.849,-3.8544,-3.856,-3.861,-3.8577,-3.8606,-3.8614,-3.8621,-3.863,-3.842,-3.8618,-3.8618,-3.8617,-3.8617,-3.8616,0,-3.831,-3.832,-3.8368,-3.8409,-3.845,-3.8411,-3.8441,-3.8478,-3.8535,-3.8559,-3.8599,-3.8664,-3.8715,-3.8719,-3.8766,-3.8806,-3.879,-3.8819,-3.8815,-3.8819,-3.8657,-3.8635,-3.8831,-3.883,-3.883,-3.883,-3.883,-3.883,-3.842,-3.8505,-3.8498,-3.8592,-3.8601,-3.8664,-3.8684,-3.871,-3.8728,-3.8802,-3.8844,-3.8846,-3.8861,-3.8909,-3.8954,-3.8954,-3.8973,-3.9008,-3.9002,-3.8851,-3.883,-3.881,-3.8788,-3.9013,-3.9013,-3.9158,-3.916,-3.9161]},{"header":{"parameterUnit":"m.s-1","parameterCategory":1,"la1":30.2991,"la2":30.254,"lo1":-89.0895,"lo2":-89.0444,"dy":0.0017,"dx":0.0017,"nx":28,"ny":28,"refTime":"2025-12-05T09:00:00:Z","depth":0,"parameterNumber":3,"parameterNumberName":"V-component_of_WINDS"},"data":[0,0,0,0,0,0,0,0,0,0,0,0,0,0,0,0,0,0,0,0,0,0,0,0,0,0,0,0,0,0,0,0,0,0,0,0,0,0,0,0,0,0,0,0,0,0,0,0,0,0,0,0,0,0,0,0,0,0,-0.812,-0.812,0,-0.8147,-0.8147,-0.8147,-0.8134,-0.8134,-0.8133,-0.8132,-0.816,-0.8162,-0.8163,0,0,0,0,0,0,0,0,0,0,0,0,0,-0.8056,-0.8058,-0.812,-0.812,-0.8121,-0.8147,-0.8147,-0.8148,-0.8134,-0.8134,-0.8133,-0.8132,-0.816,-0.8161,-0.8163,0,0,0,0,0,0,0,0,0,0,0,0,0,-0.8084,-0.8058,-0.812,-0.8117,-0.8117,-0.8147,-0.8147,-0.8148,-0.8135,-0.8133,-0.8132,-0.8131,-0.8159,-0.8161,-0.8163,-0.8197,0,0,-0.817,-0.8171,0,0,0,0,0,0,0,0,-0.8082,-0.8086,-0.8117,-0.8117,-0.8117,-0.8136,-0.8135,-0.8164,-0.8135,-0.8128,-0.8132,-0.8131,-0.8153,-0.8156,-0.8163,-0.8198,-0.82,-0.817,-0.8171,-0.8172,-0.8173,0,0,0,0,0,0,0,-0.808,-0.8085,-0.8131,-0.8118,-0.8118,-0.8114,-0.8117,-0.8141,-0.8146,-0.8128,-0.8128,-0.8131,-0.8153,-0.8161,-0.8164,-0.82,-0.817,-0.8172,-0.8173,-0.8174,-0.8264,-0.8265,0,0,0,0,0,0,-0.8079,-0.8083,-0.813,-0.8131,-0.8097,-0.8116,-0.8119,-0.8131,-0.8146,-0.8147,-0.8132,-0.813,-0.8158,-0.8161,-0.8164,-0.8205,-0.8172,-0.8174,-0.8175,-0.8263,-0.8264,-0.8265,0,0,0,0,0,0,-0.8077,-0.8083,-0.8129,-0.8107,-0.8113,-0.8119,-0.8132,-0.8132,-0.814,-0.8148,-0.8149,-0.8139,-0.8157,-0.8162,-0.8189,-0.8205,-0.8175,-0.8177,-0.8261,-0.8263,-0.8265,-0.8285,0,0,0,0,0,0,-0.8076,-0.8083,-0.8096,-0.8108,-0.8114,-0.8153,-0.8133,-0.8134,-0.8144,-0.8142,-0.8155,-0.8156,-0.8157,-0.8186,-0.8191,-0.8208,-0.8178,-0.826,-0.8262,-0.8264,-0.8283,-0.8288,-0.8291,0,0,0,0,0,-0.8073,-0.8101,-0.8096,-0.8102,-0.813,-0.8154,-0.8157,-0.8157,-0.8145,-0.8158,-0.8163,-0.8156,-0.8203,-0.8189,-0.8194,-0.8212,-0.8259,-0.8262,-0.8264,-0.8281,-0.8287,-0.8291,0,0,0,0,0,0,-0.8091,-0.8102,-0.8098,-0.813,-0.8141,-0.8151,-0.8168,-0.8163,-0.8178,-0.8175,-0.8174,-0.8177,-0.8206,-0.8212,-0.8196,-0.8245,-0.8229,-0.8233,-0.824,-0.8245,-0.8249,-0.8247,-0.818,0,0,0,0,0,-0.8098,-0.8116,-0.8125,-0.8153,-0.8158,-0.8162,-0.8172,-0.8171,-0.8183,-0.8187,-0.8194,-0.8206,-0.8223,-0.8235,-0.8251,-0.8284,-0.8286,-0.8299,-0.8303,-0.8306,-0.8309,-0.8327,-0.8332,-0.8274,-0.8274,-0.8274,0,0,-0.8114,-0.8123,-0.8134,-0.8156,-0.8165,-0.8183,-0.8166,-0.8187,-0.8201,-0.8191,-0.8217,-0.8222,-0.8235,-0.8265,-0.8279,-0.8271,-0.8326,-0.8309,-0.8312,-0.8313,-0.833,-0.8335,-0.834,-0.8275,-0.8275,-0.8275,0,0,-0.8153,-0.8161,-0.8184,-0.8193,-0.8206,-0.8208,-0.8214,-0.8225,-0.8228,-0.8254,-0.8247,-0.8263,-0.8293,-0.8302,-0.8311,-0.8351,-0.8345,-0.8357,-0.8378,-0.8394,-0.8399,-0.8403,-0.8417,-0.8422,-0.836,-0.836,-0.836,0,-0.8171,-0.8198,-0.8197,-0.8218,-0.8227,-0.8219,-0.8242,-0.8251,-0.8268,-0.8275,-0.8266,-0.8303,-0.8311,-0.8343,-0.8352,-0.836,-0.8366,-0.8355,-0.8398,-0.8403,-0.8406,-0.842,-0.8425,-0.8361,-0.8361,-0.8361,-0.8361,0,-0.822,-0.8239,-0.8256,-0.8273,-0.8284,-0.8307,-0.8308,-0.832,-0.8317,-0.8321,-0.8347,-0.8356,-0.8374,-0.8381,-0.8379,-0.8413,-0.8407,-0.8398,-0.8382,-0.8413,-0.8426,-0.8431,-0.8363,-0.8363,-0.8362,-0.8362,0,0,-0.827,-0.8285,-0.8292,-0.8299,-0.8312,-0.8327,-0.8348,-0.8365,-0.8375,-0.8387,-0.8405,-0.843,-0.8421,-0.8431,-0.843,-0.8445,-0.8476,-0.8434,-0.8434,-0.8441,-0.8513,-0.8519,-0.8525,-0.8472,-0.8473,-0.8473,-0.8512,0,-0.8309,-0.8346,-0.8345,-0.838,-0.8397,-0.8389,-0.8407,-0.8417,-0.8421,-0.8436,-0.8439,-0.8457,-0.8445,-0.845,-0.8464,-0.8469,-0.849,-0.8466,-0.8488,-0.8489,-0.8485,-0.8532,-0.8539,-0.8575,-0.8517,-0.8517,-0.8518,0,-0.836,-0.8373,-0.8409,-0.8419,-0.8426,-0.8443,-0.8458,-0.8473,-0.8484,-0.8485,-0.8495,-0.8491,-0.8513,-0.8496,-0.8525,-0.8509,-0.8517,-0.8521,-0.8522,-0.8524,-0.8505,-0.8535,-0.8587,-0.8592,-0.8526,-0.8525,-0.8525,0,-0.8393,-0.842,-0.8445,-0.8451,-0.8463,-0.8475,-0.8481,-0.8491,-0.8501,-0.8514,-0.852,-0.8536,-0.8544,-0.8556,-0.8557,-0.8544,-0.8586,-0.8569,-0.8588,-0.8588,-0.8597,-0.8596,-0.865,-0.8603,-0.8603,-0.8602,-0.8602,0,-0.8436,-0.8459,-0.846,-0.8475,-0.85,-0.8498,-0.8522,-0.8527,-0.8535,-0.8551,-0.8545,-0.856,-0.856,-0.8575,-0.8575,-0.8599,-0.8603,-0.8605,-0.8605,-0.8605,-0.8605,-0.8611,-0.8609,-0.8604,-0.8604,-0.8603,-0.8603,0,-0.8477,-0.8479,-0.8505,-0.8514,-0.8517,-0.8535,-0.8543,-0.8557,-0.8559,-0.858,-0.8584,-0.8588,-0.8606,-0.8607,-0.8628,-0.8628,-0.8657,-0.8654,-0.8653,-0.8652,-0.8671,-0.8669,-0.873,-0.8738,-0.8685,-0.8686,-0.8686,0,-0.8505,-0.8522,-0.8532,-0.8542,-0.8549,-0.8565,-0.8575,-0.8574,-0.8584,-0.8598,-0.861,-0.8627,-0.8641,-0.8669,-0.8674,-0.8689,-0.8687,-0.8707,-0.8689,-0.8689,-0.8687,-0.8686,-0.8687,-0.8711,-0.8711,-0.8712,-0.8712,0,-0.8554,-0.8553,-0.8568,-0.8582,-0.8594,-0.8606,-0.8617,-0.8625,-0.8625,-0.8638,-0.8655,-0.8666,-0.8686,-0.8703,-0.8718,-0.8724,-0.8718,-0.8718,-0.8723,-0.8724,-0.8722,-0.8723,-0.8662,-0.8716,-0.8716,-0.8716,-0.8715,-0.8715,-0.8589,-0.8603,-0.8612,-0.8629,-0.8636,-0.8646,-0.866,-0.8664,-0.8679,-0.8695,-0.8693,-0.8713,-0.8723,-0.8742,-0.8749,-0.8764,-0.8757,-0.8765,-0.8767,-0.8769,-0.877,-0.872,-0.8767,-0.8767,-0.8767,-0.8767,-0.8767,0,-0.8637,-0.8642,-0.8657,-0.8672,-0.8685,-0.8678,-0.8689,-0.87,-0.8717,-0.8727,-0.874,-0.876,-0.8776,-0.8781,-0.8797,-0.8808,-0.8806,-0.8812,-0.8811,-0.8813,-0.8776,-0.877,-0.8814,-0.8814,-0.8814,-0.8814,-0.8814,-0.8814,-0.8663,-0.8687,-0.8688,-0.8715,-0.872,-0.8739,-0.8746,-0.8755,-0.8763,-0.8785,-0.8798,-0.8802,-0.881,-0.8826,-0.884,-0.8841,-0.8847,-0.8855,-0.8855,-0.882,-0.8815,-0.8811,-0.8805,-0.8856,-0.8856,-0.889,-0.8891,-0.8891]}]]